sat.trackr.live / text

‹ back to catalog

ANIK F3

NORAD 31102 · 2007-009A

PAYLOAD ACTIVE UNKNOWN

§ Identity

Operator
Country
CA
Launch date
2007-04-09
Launch site
TYMSC
Launch vehicle
Mass (kg)
RCS (m²)
28.22

Purposes: comms

External: N2YO · Heavens-Above · Gunter

§ Orbital elements

Epoch: 2026-09-10T04:57:55.449792Z

Period
1,436.10 min
Inclination
1.4115°
Eccentricity
0.0002589
Mean motion
1.00271770 rev/d
Perigee alt
35,775.7 km
Apogee alt
35,797.5 km
Semi-major
42,164.7 km
B*
0.0000e+0
RAAN
82.6993°
Arg perigee
85.6828°
Mean anomaly
136.6336°
Rev number
4,741

§ Raw data

ANIK F31 31102U 07009A   26253.20689178 -.00000021  00000+0  00000+0 0  99942 31102   1.4115  82.6993 0002589  85.6828 136.6336  1.00271770 47418

JSON: /api/v1/satellites/31102 · /tle

For live sub-satellite position, see the globe view (requires WebGL).

§ Visibility from observer

Set your observer location to see the next 7 days of passes ≥ 10°. The values pass through the URL so the page stays shareable.

No JS? Fill the form by hand. The geolocation button needs JavaScript.